When you browse on this site, cookies collect data to enhance your experience and personalize the content and advertising you see.
Visit our Privacy Policy to learn more. By continuing to use the site, you agree to this use of cookies and data.
  • In Romania
  • List of Countries
  • For 7 days
  • Water Temperature
  • Satellite Maps
  • Weather Map
  • Weather Widgets
  • user-avatar
    Login

    Hourly Weather Kashaevo

    Today, 18 January, Friday

    Time Temperature Precipitation Wind Pressure Humidity
    00:00 -2°C° 0 mm 6 mps 724 mmHg 85%
    01:00 -2°C° 0 mm 6 mps 725 mmHg 85%
    02:00 -1°C° 0 mm 5 mps 725 mmHg 87%
    03:00 -1°C° 0.1 mm 5 mps 725 mmHg 86%
    04:00 -1°C° 0.1 mm 5 mps 726 mmHg 86%
    05:00 -1°C° 0.1 mm 5 mps 726 mmHg 85%
    06:00 -2°C° 0 mm 4 mps 727 mmHg 86%
    07:00 -3°C° 0 mm 4 mps 728 mmHg 86%
    08:00 -4°C° 0 mm 3 mps 728 mmHg 88%
    09:00 -4°C° 0 mm 3 mps 728 mmHg 87%
    10:00 -5°C° 0 mm 3 mps 729 mmHg 86%
    11:00 -5°C° 0 mm 3 mps 730 mmHg 85%
    12:00 -5°C° 0.1 mm 3 mps 730 mmHg 87%
    13:00 -4°C° 0.1 mm 2 mps 730 mmHg 88%
    14:00 -3°C° 0.1 mm 1 mps 730 mmHg 90%
    15:00 -5°C° 0.4 mm 2 mps 730 mmHg 91%
    16:00 -6°C° 0.4 mm 2 mps 730 mmHg 93%
    17:00 -7°C° 0.4 mm 2 mps 730 mmHg 95%
    18:00 -7°C° 0.7 mm 2 mps 730 mmHg 95%
    19:00 -7°C° 0.7 mm 2 mps 730 mmHg 95%
    20:00 -7°C° 0.7 mm 2 mps 730 mmHg 94%
    21:00 -8°C° 0.1 mm 2 mps 731 mmHg 93%
    22:00 -8°C° 0.1 mm 2 mps 732 mmHg 92%
    23:00 -9°C° 0.1 mm 2 mps 732 mmHg 90%

    Tomorrow, 19 January, Saturday

    Time Temperature Precipitation Wind Pressure Humidity
    00:00 -12°C° 0 mm 3 mps 733 mmHg 91%
    01:00 -13°C° 0 mm 3 mps 733 mmHg 92%
    02:00 -14°C° 0 mm 3 mps 734 mmHg 93%
    03:00 -14°C° 0 mm 3 mps 734 mmHg 93%
    04:00 -14°C° 0 mm 3 mps 734 mmHg 93%
    05:00 -14°C° 0 mm 4 mps 734 mmHg 93%
    06:00 -14°C° 0 mm 4 mps 734 mmHg 92%
    07:00 -12°C° 0 mm 4 mps 735 mmHg 91%
    08:00 -11°C° 0 mm 4 mps 735 mmHg 90%
    09:00 -10°C° 0.1 mm 4 mps 735 mmHg 89%
    10:00 -9°C° 0.1 mm 4 mps 736 mmHg 88%
    11:00 -8°C° 0.1 mm 4 mps 736 mmHg 87%
    12:00 -9°C° 0.1 mm 4 mps 736 mmHg 86%
    13:00 -9°C° 0.1 mm 4 mps 737 mmHg 85%
    14:00 -9°C° 0.1 mm 3 mps 737 mmHg 83%
    15:00 -10°C° 0 mm 3 mps 737 mmHg 86%
    16:00 -12°C° 0 mm 3 mps 737 mmHg 88%
    17:00 -12°C° 0 mm 3 mps 738 mmHg 90%
    18:00 -12°C° 0 mm 2 mps 738 mmHg 91%
    19:00 -12°C° 0 mm 2 mps 738 mmHg 92%
    20:00 -13°C° 0 mm 2 mps 739 mmHg 93%
    21:00 -12°C° 0 mm 2 mps 739 mmHg 93%
    22:00 -10°C° 0 mm 2 mps 739 mmHg 93%
    23:00 -9°C° 0 mm 2 mps 739 mmHg 94%

    Day after tomorrow, 20 January, Sunday

    Time Temperature Precipitation Wind Pressure Humidity
    00:00 -9°C° 0 mm 3 mps 739 mmHg 92%
    01:00 -9°C° 0 mm 3 mps 739 mmHg 91%
    02:00 -10°C° 0 mm 4 mps 739 mmHg 90%
    03:00 -10°C° 0 mm 4 mps 739 mmHg 89%
    04:00 -11°C° 0 mm 5 mps 738 mmHg 88%
    05:00 -11°C° 0 mm 5 mps 738 mmHg 87%
    06:00 -11°C° 0.1 mm 5 mps 737 mmHg 87%
    07:00 -10°C° 0.1 mm 5 mps 737 mmHg 87%
    08:00 -10°C° 0.1 mm 6 mps 736 mmHg 86%
    09:00 -8°C° 0.1 mm 6 mps 736 mmHg 85%
    10:00 -6°C° 0.1 mm 6 mps 736 mmHg 84%
    11:00 -6°C° 0.1 mm 7 mps 735 mmHg 84%
    12:00 -5°C° 0.4 mm 6 mps 735 mmHg 85%
    13:00 -6°C° 0.4 mm 5 mps 735 mmHg 87%
    14:00 -6°C° 0.4 mm 5 mps 735 mmHg 88%
    15:00 -7°C° 0.1 mm 4 mps 735 mmHg 87%
    16:00 -8°C° 0.1 mm 4 mps 735 mmHg 87%
    17:00 -9°C° 0.1 mm 4 mps 736 mmHg 86%
    18:00 -10°C° 0 mm 4 mps 736 mmHg 87%
    19:00 -11°C° 0 mm 4 mps 736 mmHg 88%
    20:00 -12°C° 0 mm 4 mps 737 mmHg 89%
    21:00 -12°C° 0 mm 3 mps 737 mmHg 90%
    22:00 -13°C° 0 mm 3 mps 737 mmHg 90%
    23:00 -14°C° 0 mm 3 mps 738 mmHg 91%

    21 January, Monday

    Time Temperature Precipitation Wind Pressure Humidity
    00:00 -15°C° 0 mm 3 mps 738 mmHg 92%
    01:00 -15°C° 0 mm 3 mps 738 mmHg 93%
    02:00 -15°C° 0 mm 2 mps 738 mmHg 94%
    03:00 -16°C° 0 mm 2 mps 738 mmHg 94%
    04:00 -16°C° 0 mm 2 mps 738 mmHg 95%
    05:00 -16°C° 0 mm 2 mps 738 mmHg 95%
    06:00 -16°C° 0 mm 2 mps 738 mmHg 95%
    07:00 -16°C° 0 mm 2 mps 739 mmHg 95%
    08:00 -17°C° 0 mm 2 mps 739 mmHg 95%
    09:00 -16°C° 0 mm 2 mps 739 mmHg 94%
    10:00 -16°C° 0 mm 3 mps 739 mmHg 92%
    11:00 -15°C° 0 mm 3 mps 739 mmHg 91%
    12:00 -14°C° 0.1 mm 3 mps 739 mmHg 89%
    13:00 -14°C° 0.1 mm 3 mps 740 mmHg 87%
    14:00 -14°C° 0.1 mm 3 mps 740 mmHg 84%
    15:00 -15°C° 0 mm 3 mps 740 mmHg 87%
    16:00 -15°C° 0 mm 2 mps 740 mmHg 90%
    17:00 -16°C° 0 mm 2 mps 740 mmHg 92%
    18:00 -17°C° 0 mm 2 mps 741 mmHg 93%
    19:00 -18°C° 0 mm 2 mps 741 mmHg 94%
    20:00 -19°C° 0 mm 2 mps 741 mmHg 94%
    21:00 -19°C° 0 mm 2 mps 741 mmHg 95%
    22:00 -20°C° 0 mm 2 mps 742 mmHg 96%
    23:00 -20°C° 0 mm 2 mps 742 mmHg 96%

    22 January, Tuesday

    Time Temperature Precipitation Wind Pressure Humidity
    00:00 -20°C° 0 mm 2 mps 742 mmHg 97%
    01:00 -20°C° 0 mm 2 mps 742 mmHg 97%
    02:00 -20°C° 0 mm 2 mps 742 mmHg 97%
    03:00 -20°C° 0 mm 2 mps 742 mmHg 98%
    04:00 -20°C° 0 mm 2 mps 742 mmHg 98%
    05:00 -21°C° 0 mm 2 mps 742 mmHg 98%
    06:00 -19°C° 0 mm 1 mps 742 mmHg 98%
    07:00 -19°C° 0 mm 1 mps 742 mmHg 98%
    08:00 -19°C° 0 mm 1 mps 742 mmHg 98%
    09:00 -18°C° 0 mm 1 mps 743 mmHg 97%
    10:00 -17°C° 0 mm 1 mps 743 mmHg 96%
    11:00 -15°C° 0 mm 1 mps 743 mmHg 95%
    12:00 -15°C° 0 mm 1 mps 743 mmHg 95%
    13:00 -14°C° 0 mm 1 mps 743 mmHg 95%
    14:00 -14°C° 0 mm 0 mps 743 mmHg 95%
    15:00 -15°C° 0 mm 0 mps 743 mmHg 96%
    16:00 -17°C° 0 mm 0 mps 743 mmHg 97%
    17:00 -18°C° 0 mm 0 mps 743 mmHg 98%
    18:00 -18°C° 0 mm 0 mps 743 mmHg 99%
    19:00 -18°C° 0 mm 0 mps 743 mmHg 99%
    20:00 -18°C° 0 mm 0 mps 743 mmHg 99%
    21:00 -18°C° 0 mm 1 mps 743 mmHg 99%
    22:00 -18°C° 0 mm 1 mps 743 mmHg 99%
    23:00 -18°C° 0 mm 1 mps 743 mmHg 99%

    23 January, Wednesday

    Time Temperature Precipitation Wind Pressure Humidity
    00:00 -18°C° 0 mm 1 mps 743 mmHg 99%
    01:00 -17°C° 0 mm 1 mps 743 mmHg 98%
    02:00 -19°C° 0 mm 2 mps 743 mmHg 98%
    03:00 -18°C° 0 mm 2 mps 743 mmHg 98%
    04:00 -17°C° 0 mm 2 mps 742 mmHg 98%
    05:00 -16°C° 0 mm 2 mps 742 mmHg 97%
    06:00 -15°C° 0 mm 2 mps 742 mmHg 97%
    07:00 -15°C° 0 mm 2 mps 742 mmHg 97%
    08:00 -14°C° 0 mm 2 mps 742 mmHg 96%
    09:00 -14°C° 0 mm 3 mps 742 mmHg 95%
    10:00 -13°C° 0 mm 3 mps 742 mmHg 94%
    11:00 -10°C° 0 mm 3 mps 742 mmHg 93%
    12:00 -10°C° 0 mm 3 mps 742 mmHg 92%
    13:00 -10°C° 0 mm 3 mps 742 mmHg 91%
    14:00 -10°C° 0 mm 4 mps 742 mmHg 90%
    15:00 -12°C° 0 mm 3 mps 742 mmHg 90%
    16:00 -13°C° 0 mm 3 mps 742 mmHg 91%
    17:00 -15°C° 0 mm 3 mps 742 mmHg 91%
    18:00 -14°C° 0 mm 3 mps 742 mmHg 92%
    19:00 -14°C° 0 mm 3 mps 742 mmHg 92%
    20:00 -13°C° 0 mm 3 mps 743 mmHg 92%
    21:00 -14°C° 0 mm 3 mps 743 mmHg 92%
    22:00 -14°C° 0 mm 3 mps 743 mmHg 92%
    23:00 -14°C° 0 mm 3 mps 743 mmHg 92%
    Show more